QPF
0.00 0.00 0.00 0.00 0.01 0.00 0.00 0.00 0.01 0.01 0.01 0.02 0.05 0.06 0.07 0.08 0.05 0.03 0.03 0.06 0.06 0.06 0.07 0.08 0.09 0.08 0.09 0.09 0.09 0.14 0.21 0.19 0.20 0.18 0.16 0.14 0.13 0.12 0.09 0.06 0.05 0.06 0.08 0.12
0.00 0.00 0.00 0.00 0.00 0.00 0.00 0.00 0.00 0.01 0.02 0.02 0.03 0.05 0.06 0.05 0.05 0.04 0.04 0.05 0.06 0.04 0.03 0.05 0.07 0.09 0.10 0.10 0.09 0.11 0.13 0.17 0.26 0.23 0.21 0.21 0.21 0.22 0.22 0.13 0.08 0.08 0.10 0.14
0.00 0.00 0.00 0.00 0.01 0.01 0.00 0.00 0.01 0.02 0.03 0.03 0.05 0.05 0.05 0.04 0.03 0.04 0.05 0.05 0.05 0.03 0.03 0.04 0.05 0.06 0.07 0.09 0.09 0.09 0.10 0.12 0.13 0.15 0.17 0.18 0.20 0.21 0.21 0.16 0.12 0.11 0.11 0.10
0.00 0.00 0.00 0.02 0.03 0.02 0.02 0.02 0.03 0.03 0.04 0.04 0.05 0.06 0.05 0.04 0.04 0.04 0.04 0.04 0.04 0.03 0.03 0.03 0.04 0.06 0.06 0.06 0.08 0.10 0.13 0.16 0.18 0.18 0.16 0.17 0.18 0.16 0.15 0.16 0.15 0.11 0.10 0.08
0.00 0.01 0.01 0.02 0.04 0.02 0.02 0.03 0.07 0.06 0.06 0.07 0.06 0.04 0.04 0.04 0.03 0.03 0.03 0.03 0.05 0.05 0.04 0.05 0.05 0.05 0.05 0.05 0.05 0.08 0.10 0.11 0.14 0.18 0.16 0.14 0.12 0.12 0.12 0.11 0.10 0.09 0.10 0.11
0.00 0.01 0.02 0.02 0.03 0.02 0.01 0.04 0.05 0.05 0.07 0.08 0.11 0.10 0.06 0.04 0.03 0.03 0.04 0.05 0.05 0.05 0.05 0.06 0.06 0.07 0.05 0.04 0.07 0.08 0.10 0.10 0.10 0.10 0.10 0.12 0.12 0.10 0.08 0.08 0.08 0.07 0.08 0.10
0.00 0.01 0.02 0.02 0.03 0.04 0.04 0.06 0.04 0.03 0.07 0.08 0.06 0.07 0.06 0.04 0.04 0.04 0.03 0.03 0.04 0.03 0.02 0.03 0.04 0.05 0.06 0.07 0.08 0.07 0.10 0.11 0.12 0.14 0.11 0.09 0.09 0.09 0.09 0.10 0.12 0.11 0.10 0.09
0.01 0.02 0.03 0.02 0.02 0.04 0.04 0.05 0.04 0.03 0.03 0.04 0.04 0.05 0.05 0.05 0.04 0.04 0.02 0.02 0.02 0.02 0.02 0.03 0.04 0.05 0.06 0.06 0.05 0.05 0.06 0.06 0.07 0.10 0.11 0.12 0.11 0.09 0.09 0.09 0.12 0.16 0.14 0.12
0.02 0.02 0.03 0.03 0.04 0.04 0.04 0.03 0.03 0.03 0.03 0.03 0.03 0.04 0.04 0.04 0.03 0.03 0.02 0.01 0.01 0.01 0.02 0.03 0.04 0.05 0.04 0.03 0.04 0.04 0.05 0.04 0.04 0.05 0.07 0.07 0.07 0.07 0.08 0.09 0.10 0.12 0.12 0.13
0.02 0.03 0.03 0.03 0.03 0.05 0.05 0.05 0.04 0.05 0.06 0.05 0.04 0.05 0.04 0.03 0.03 0.02 0.02 0.01 0.01 0.02 0.02 0.03 0.04 0.04 0.04 0.04 0.03 0.03 0.04 0.04 0.03 0.03 0.05 0.06 0.07 0.08 0.08 0.07 0.06 0.07 0.08 0.09
0.04 0.04 0.04 0.04 0.03 0.04 0.05 0.09 0.13 0.11 0.09 0.11 0.08 0.07 0.07 0.05 0.04 0.03 0.02 0.02 0.02 0.02 0.03 0.04 0.04 0.04 0.04 0.04 0.05 0.05 0.05 0.05 0.04 0.03 0.04 0.05 0.06 0.06 0.05 0.03 0.04 0.05 0.06 0.07
0.04 0.03 0.04 0.04 0.05 0.06 0.05 0.10 0.15 0.16 0.14 0.15 0.12 0.08 0.07 0.05 0.04 0.06 0.06 0.04 0.04 0.04 0.03 0.04 0.04 0.04 0.05 0.05 0.06 0.07 0.06 0.06 0.06 0.07 0.06 0.06 0.06 0.05 0.04 0.03 0.03 0.03 0.04 0.05
0.05 0.05 0.04 0.03 0.04 0.06 0.08 0.10 0.10 0.14 0.15 0.13 0.12 0.09 0.07 0.05 0.03 0.06 0.06 0.06 0.05 0.04 0.05 0.05 0.06 0.06 0.07 0.09 0.10 0.10 0.09 0.08 0.08 0.08 0.08 0.07 0.06 0.04 0.04 0.04 0.04 0.04 0.05 0.05
0.08 0.07 0.04 0.03 0.03 0.07 0.14 0.13 0.11 0.12 0.15 0.12 0.10 0.08 0.06 0.04 0.04 0.05 0.05 0.06 0.05 0.04 0.06 0.07 0.07 0.07 0.08 0.11 0.15 0.16 0.15 0.13 0.11 0.09 0.08 0.06 0.04 0.04 0.03 0.04 0.05 0.05 0.04 0.04
0.07 0.06 0.06 0.06 0.07 0.08 0.11 0.12 0.12 0.16 0.15 0.10 0.07 0.05 0.03 0.02 0.02 0.03 0.05 0.06 0.05 0.04 0.05 0.07 0.07 0.08 0.10 0.12 0.15 0.20 0.21 0.17 0.13 0.10 0.10 0.08 0.05 0.03 0.03 0.03 0.04 0.03 0.03 0.02
0.04 0.05 0.06 0.08 0.09 0.07 0.07 0.07 0.07 0.09 0.10 0.09 0.06 0.03 0.02 0.02 0.03 0.04 0.06 0.06 0.05 0.05 0.06 0.06 0.06 0.07 0.08 0.10 0.11 0.11 0.10 0.09 0.08 0.07 0.06 0.06 0.04 0.04 0.03 0.02 0.02 0.02 0.02 0.02
0.05 0.05 0.05 0.08 0.09 0.08 0.07 0.06 0.04 0.04 0.06 0.06 0.05 0.04 0.03 0.03 0.04 0.06 0.07 0.06 0.04 0.04 0.05 0.06 0.07 0.06 0.05 0.06 0.07 0.06 0.06 0.05 0.05 0.05 0.05 0.05 0.04 0.03 0.03 0.02 0.01 0.01 0.01 0.01
0.05 0.06 0.07 0.10 0.09 0.07 0.06 0.05 0.04 0.04 0.04 0.04 0.04 0.04 0.03 0.03 0.05 0.06 0.05 0.03 0.02 0.03 0.03 0.04 0.04 0.04 0.04 0.04 0.04 0.03 0.04 0.04 0.05 0.05 0.04 0.04 0.04 0.03 0.03 0.02 0.01 0.01 0.01 0.01
0.09 0.09 0.08 0.08 0.06 0.05 0.05 0.04 0.04 0.03 0.03 0.03 0.03 0.03 0.04 0.04 0.04 0.04 0.03 0.03 0.03 0.03 0.02 0.02 0.03 0.03 0.03 0.03 0.03 0.03 0.03 0.03 0.03 0.03 0.04 0.05 0.06 0.05 0.04 0.04 0.03 0.02 0.01 0.01
0.08 0.07 0.07 0.07 0.05 0.04 0.04 0.04 0.04 0.03 0.02 0.02 0.02 0.03 0.03 0.03 0.03 0.03 0.03 0.03 0.03 0.02 0.01 0.02 0.03 0.02 0.02 0.03 0.03 0.03 0.03 0.03 0.03 0.03 0.04 0.05 0.06 0.06 0.07 0.07 0.05 0.02 0.01 0.00
0.06 0.06 0.06 0.05 0.05 0.04 0.05 0.05 0.05 0.03 0.03 0.03 0.04 0.04 0.03 0.03 0.03 0.03 0.04 0.03 0.03 0.02 0.02 0.02 0.03 0.02 0.01 0.02 0.02 0.03 0.04 0.06 0.06 0.05 0.06 0.06 0.05 0.06 0.06 0.05 0.03 0.02 0.01 0.01
0.09 0.06 0.05 0.04 0.03 0.03 0.03 0.03 0.04 0.03 0.02 0.03 0.04 0.04 0.05 0.05 0.05 0.04 0.03 0.03 0.02 0.02 0.02 0.02 0.02 0.02 0.02 0.02 0.02 0.02 0.03 0.04 0.06 0.07 0.08 0.07 0.07 0.05 0.03 0.02 0.01 0.01 0.01 0.01
0.07 0.06 0.05 0.03 0.03 0.05 0.05 0.04 0.03 0.02 0.02 0.02 0.03 0.03 0.03 0.03 0.03 0.03 0.03 0.02 0.02 0.03 0.03 0.03 0.03 0.03 0.03 0.03 0.02 0.02 0.02 0.03 0.03 0.04 0.04 0.05 0.05 0.05 0.03 0.02 0.01 0.01 0.01 0.01
0.04 0.03 0.03 0.04 0.04 0.04 0.04 0.03 0.02 0.01 0.02 0.02 0.02 0.02 0.02 0.02 0.02 0.02 0.02 0.02 0.02 0.03 0.04 0.04 0.03 0.04 0.04 0.04 0.03 0.03 0.03 0.04 0.04 0.04 0.04 0.04 0.04 0.03 0.03 0.02 0.02 0.02 0.02 0.02
0.05 0.05 0.04 0.05 0.06 0.04 0.03 0.02 0.02 0.02 0.02 0.02 0.01 0.01 0.01 0.01 0.01 0.01 0.01 0.01 0.02 0.03 0.04 0.03 0.03 0.03 0.04 0.04 0.04 0.04 0.04 0.05 0.04 0.04 0.03 0.03 0.02 0.02 0.02 0.02 0.02 0.02 0.02 0.03
0.04 0.04 0.03 0.03 0.04 0.03 0.03 0.02 0.01 0.01 0.02 0.02 0.02 0.02 0.01 0.01 0.01 0.01 0.02 0.02 0.02 0.03 0.03 0.03 0.04 0.04 0.03 0.02 0.02 0.02 0.02 0.03 0.03 0.02 0.02 0.02 0.02 0.02 0.02 0.03 0.03 0.03 0.04 0.04
0.03 0.02 0.01 0.03 0.04 0.02 0.02 0.03 0.03 0.03 0.03 0.03 0.02 0.02 0.02 0.01 0.01 0.01 0.02 0.02 0.02 0.03 0.03 0.03 0.03 0.04 0.05 0.04 0.02 0.02 0.02 0.02 0.02 0.02 0.01 0.02 0.02 0.02 0.02 0.02 0.05 0.05 0.04 0.04
MSLP
1012.29 1012.24 1012.12 1011.97 1011.84 1011.75 1011.71 1011.73 1011.80 1011.92 1012.07 1012.25 1012.45 1012.67 1012.90 1013.13 1013.35 1013.53 1013.65 1013.68 1013.60 1013.40 1013.10 1012.70 1012.23 1011.73 1011.23 1010.76 1010.34 1009.98 1009.68 1009.42 1009.20 1009.00 1008.81 1008.62 1008.44 1008.28 1008.14 1008.04 1007.99 1007.98 1008.01 1008.08
1012.63 1012.56 1012.38 1012.14 1011.88 1011.65 1011.48 1011.38 1011.38 1011.47 1011.64 1011.88 1012.16 1012.47 1012.77 1013.05 1013.27 1013.43 1013.50 1013.48 1013.37 1013.16 1012.89 1012.56 1012.19 1011.81 1011.43 1011.07 1010.73 1010.40 1010.09 1009.79 1009.49 1009.19 1008.90 1008.62 1008.37 1008.16 1008.00 1007.90 1007.85 1007.84 1007.87 1007.91
1012.80 1012.72 1012.53 1012.25 1011.94 1011.65 1011.42 1011.29 1011.26 1011.36 1011.55 1011.83 1012.16 1012.50 1012.82 1013.08 1013.27 1013.36 1013.36 1013.27 1013.10 1012.88 1012.63 1012.35 1012.08 1011.81 1011.55 1011.29 1011.03 1010.74 1010.44 1010.10 1009.74 1009.36 1008.99 1008.65 1008.35 1008.11 1007.94 1007.83 1007.78 1007.77 1007.79 1007.80
1012.84 1012.76 1012.57 1012.30 1011.99 1011.70 1011.48 1011.35 1011.34 1011.45 1011.67 1011.97 1012.31 1012.65 1012.94 1013.15 1013.27 1013.28 1013.20 1013.03 1012.82 1012.58 1012.33 1012.11 1011.92 1011.74 1011.58 1011.41 1011.21 1010.97 1010.66 1010.31 1009.91 1009.49 1009.07 1008.68 1008.36 1008.10 1007.93 1007.83 1007.78 1007.77 1007.77 1007.75
1012.80 1012.70 1012.52 1012.26 1011.98 1011.73 1011.53 1011.44 1011.46 1011.59 1011.82 1012.12 1012.45 1012.76 1013.00 1013.15 1013.20 1013.13 1012.97 1012.75 1012.50 1012.25 1012.02 1011.85 1011.71 1011.61 1011.52 1011.42 1011.27 1011.05 1010.76 1010.40 1009.98 1009.54 1009.10 1008.70 1008.37 1008.12 1007.96 1007.86 1007.82 1007.81 1007.79 1007.74
1012.70 1012.57 1012.37 1012.13 1011.88 1011.66 1011.50 1011.44 1011.48 1011.63 1011.87 1012.15 1012.45 1012.71 1012.90 1012.99 1012.97 1012.85 1012.65 1012.40 1012.13 1011.89 1011.69 1011.55 1011.46 1011.42 1011.38 1011.32 1011.20 1011.00 1010.72 1010.37 1009.95 1009.51 1009.08 1008.70 1008.38 1008.15 1008.00 1007.92 1007.88 1007.86 1007.82 1007.74
1012.56 1012.36 1012.13 1011.88 1011.64 1011.45 1011.32 1011.28 1011.34 1011.49 1011.71 1011.96 1012.22 1012.44 1012.59 1012.64 1012.59 1012.44 1012.23 1011.97 1011.72 1011.49 1011.32 1011.22 1011.17 1011.15 1011.14 1011.10 1011.00 1010.82 1010.56 1010.22 1009.83 1009.41 1009.01 1008.65 1008.37 1008.16 1008.03 1007.96 1007.92 1007.88 1007.83 1007.72
1012.35 1012.07 1011.79 1011.52 1011.28 1011.10 1010.98 1010.95 1011.00 1011.14 1011.33 1011.56 1011.78 1011.96 1012.08 1012.11 1012.05 1011.91 1011.72 1011.49 1011.27 1011.08 1010.94 1010.86 1010.82 1010.82 1010.82 1010.79 1010.70 1010.53 1010.29 1009.98 1009.62 1009.25 1008.89 1008.58 1008.33 1008.15 1008.03 1007.96 1007.91 1007.86 1007.77 1007.64
1012.06 1011.70 1011.36 1011.06 1010.81 1010.63 1010.51 1010.48 1010.52 1010.64 1010.80 1011.00 1011.19 1011.34 1011.45 1011.48 1011.44 1011.33 1011.17 1010.99 1010.81 1010.66 1010.54 1010.48 1010.45 1010.45 1010.44 1010.40 1010.32 1010.16 1009.95 1009.68 1009.37 1009.04 1008.74 1008.47 1008.25 1008.09 1007.97 1007.89 1007.82 1007.74 1007.63 1007.48
1011.67 1011.24 1010.86 1010.54 1010.28 1010.09 1009.98 1009.94 1009.97 1010.07 1010.21 1010.37 1010.54 1010.69 1010.79 1010.84 1010.83 1010.76 1010.65 1010.52 1010.38 1010.26 1010.17 1010.11 1010.07 1010.05 1010.03 1009.98 1009.89 1009.76 1009.57 1009.34 1009.08 1008.82 1008.56 1008.33 1008.14 1007.99 1007.86 1007.76 1007.66 1007.54 1007.40 1007.24
1011.17 1010.71 1010.32 1009.99 1009.74 1009.57 1009.46 1009.43 1009.45 1009.54 1009.66 1009.81 1009.96 1010.10 1010.21 1010.28 1010.29 1010.27 1010.20 1010.11 1010.01 1009.91 1009.82 1009.75 1009.70 1009.66 1009.61 1009.55 1009.46 1009.34 1009.19 1009.00 1008.80 1008.58 1008.37 1008.18 1008.00 1007.84 1007.70 1007.57 1007.43 1007.28 1007.11 1006.93
1010.58 1010.14 1009.76 1009.47 1009.25 1009.11 1009.03 1009.01 1009.05 1009.13 1009.24 1009.38 1009.52 1009.66 1009.77 1009.85 1009.90 1009.90 1009.87 1009.80 1009.71 1009.62 1009.53 1009.44 1009.36 1009.29 1009.22 1009.15 1009.06 1008.96 1008.84 1008.69 1008.54 1008.37 1008.20 1008.02 1007.85 1007.69 1007.52 1007.35 1007.17 1006.99 1006.80 1006.61
1009.94 1009.55 1009.24 1009.01 1008.85 1008.76 1008.73 1008.75 1008.80 1008.89 1009.00 1009.13 1009.27 1009.39 1009.51 1009.59 1009.64 1009.66 1009.63 1009.58 1009.49 1009.39 1009.28 1009.17 1009.06 1008.96 1008.87 1008.79 1008.71 1008.62 1008.53 1008.43 1008.31 1008.18 1008.04 1007.89 1007.72 1007.54 1007.35 1007.16 1006.95 1006.75 1006.54 1006.36
1009.31 1009.01 1008.78 1008.64 1008.56 1008.55 1008.57 1008.63 1008.72 1008.82 1008.93 1009.06 1009.18 1009.29 1009.39 1009.46 1009.50 1009.51 1009.48 1009.41 1009.32 1009.20 1009.06 1008.92 1008.79 1008.67 1008.57 1008.48 1008.40 1008.34 1008.28 1008.21 1008.13 1008.04 1007.92 1007.78 1007.62 1007.43 1007.23 1007.02 1006.80 1006.58 1006.38 1006.20
1008.73 1008.53 1008.41 1008.37 1008.39 1008.45 1008.54 1008.65 1008.77 1008.88 1009.00 1009.11 1009.21 1009.30 1009.37 1009.42 1009.44 1009.42 1009.37 1009.28 1009.16 1009.02 1008.86 1008.70 1008.55 1008.41 1008.30 1008.22 1008.15 1008.11 1008.07 1008.04 1007.99 1007.92 1007.83 1007.70 1007.55 1007.36 1007.16 1006.95 1006.73 1006.52 1006.33 1006.17
1008.25 1008.16 1008.15 1008.21 1008.32 1008.46 1008.61 1008.76 1008.90 1009.02 1009.13 1009.22 1009.29 1009.35 1009.39 1009.40 1009.38 1009.33 1009.25 1009.14 1008.99 1008.82 1008.65 1008.47 1008.31 1008.17 1008.06 1007.99 1007.94 1007.92 1007.90 1007.89 1007.87 1007.82 1007.74 1007.63 1007.48 1007.31 1007.12 1006.92 1006.72 1006.53 1006.36 1006.22
1007.89 1007.90 1007.99 1008.13 1008.32 1008.52 1008.72 1008.90 1009.05 1009.17 1009.27 1009.33 1009.37 1009.38 1009.38 1009.35 1009.29 1009.20 1009.09 1008.94 1008.78 1008.59 1008.41 1008.22 1008.06 1007.93 1007.83 1007.77 1007.74 1007.73 1007.73 1007.74 1007.73 1007.70 1007.63 1007.53 1007.40 1007.24 1007.06 1006.88 1006.71 1006.55 1006.41 1006.28
1007.65 1007.74 1007.91 1008.12 1008.36 1008.60 1008.82 1009.01 1009.16 1009.27 1009.34 1009.37 1009.37 1009.34 1009.29 1009.22 1009.12 1009.00 1008.85 1008.68 1008.50 1008.31 1008.12 1007.94 1007.78 1007.66 1007.58 1007.53 1007.51 1007.52 1007.53 1007.55 1007.54 1007.51 1007.45 1007.35 1007.22 1007.07 1006.91 1006.75 1006.61 1006.48 1006.36 1006.26
1007.53 1007.67 1007.88 1008.13 1008.40 1008.65 1008.87 1009.05 1009.18 1009.26 1009.30 1009.29 1009.25 1009.19 1009.10 1008.98 1008.85 1008.70 1008.53 1008.35 1008.15 1007.96 1007.77 1007.60 1007.45 1007.35 1007.27 1007.24 1007.23 1007.24 1007.26 1007.27 1007.25 1007.21 1007.14 1007.03 1006.90 1006.75 1006.60 1006.46 1006.33 1006.22 1006.13 1006.04
1007.49 1007.66 1007.88 1008.14 1008.39 1008.63 1008.83 1008.98 1009.08 1009.13 1009.13 1009.09 1009.01 1008.91 1008.79 1008.65 1008.49 1008.32 1008.13 1007.93 1007.73 1007.54 1007.36 1007.20 1007.06 1006.97 1006.90 1006.88 1006.87 1006.88 1006.88 1006.88 1006.85 1006.78 1006.69 1006.56 1006.41 1006.25 1006.10 1005.96 1005.84 1005.74 1005.66 1005.59
1007.50 1007.67 1007.88 1008.11 1008.33 1008.53 1008.68 1008.79 1008.85 1008.86 1008.82 1008.75 1008.64 1008.52 1008.38 1008.22 1008.04 1007.86 1007.66 1007.46 1007.26 1007.06 1006.88 1006.73 1006.60 1006.51 1006.46 1006.43 1006.42 1006.41 1006.40 1006.37 1006.32 1006.23 1006.10 1005.95 1005.77 1005.59 1005.42 1005.27 1005.14 1005.05 1004.97 1004.91
1007.53 1007.67 1007.85 1008.03 1008.20 1008.34 1008.44 1008.50 1008.51 1008.47 1008.40 1008.30 1008.18 1008.04 1007.88 1007.72 1007.54 1007.34 1007.14 1006.94 1006.74 1006.54 1006.36 1006.21 1006.09 1006.00 1005.94 1005.90 1005.88 1005.86 1005.83 1005.78 1005.70 1005.58 1005.42 1005.24 1005.03 1004.83 1004.63 1004.46 1004.32 1004.22 1004.15 1004.09
1007.56 1007.67 1007.79 1007.91 1008.01 1008.09 1008.12 1008.12 1008.08 1008.01 1007.91 1007.80 1007.66 1007.52 1007.36 1007.19 1007.01 1006.82 1006.61 1006.41 1006.20 1006.00 1005.82 1005.67 1005.54 1005.44 1005.37 1005.32 1005.29 1005.26 1005.21 1005.14 1005.04 1004.90 1004.72 1004.52 1004.29 1004.07 1003.85 1003.66 1003.51 1003.40 1003.32 1003.26
1007.57 1007.63 1007.70 1007.75 1007.79 1007.79 1007.77 1007.71 1007.63 1007.52 1007.40 1007.28 1007.14 1006.99 1006.84 1006.67 1006.50 1006.31 1006.11 1005.90 1005.69 1005.48 1005.29 1005.12 1004.98 1004.88 1004.80 1004.74 1004.70 1004.66 1004.61 1004.54 1004.43 1004.29 1004.11 1003.90 1003.67 1003.43 1003.20 1003.00 1002.84 1002.71 1002.62 1002.56
1007.55 1007.57 1007.58 1007.57 1007.55 1007.49 1007.41 1007.31 1007.19 1007.06 1006.92 1006.79 1006.65 1006.52 1006.37 1006.21 1006.04 1005.86 1005.66 1005.44 1005.23 1005.01 1004.81 1004.63 1004.47 1004.35 1004.27 1004.21 1004.17 1004.13 1004.09 1004.03 1003.95 1003.82 1003.66 1003.47 1003.25 1003.02 1002.80 1002.60 1002.43 1002.29 1002.19 1002.12
1007.48 1007.47 1007.44 1007.39 1007.31 1007.21 1007.08 1006.95 1006.80 1006.66 1006.52 1006.39 1006.26 1006.13 1005.99 1005.84 1005.68 1005.50 1005.30 1005.08 1004.85 1004.63 1004.41 1004.22 1004.05 1003.92 1003.84 1003.78 1003.75 1003.73 1003.72 1003.69 1003.64 1003.55 1003.44 1003.28 1003.10 1002.91 1002.71 1002.51 1002.34 1002.19 1002.08 1001.98
1007.35 1007.33 1007.28 1007.20 1007.09 1006.96 1006.81 1006.66 1006.50 1006.36 1006.22 1006.09 1005.97 1005.85 1005.73 1005.59 1005.43 1005.25 1005.05 1004.83 1004.59 1004.36 1004.13 1003.93 1003.76 1003.62 1003.53 1003.49 1003.48 1003.48 1003.51 1003.52 1003.53 1003.50 1003.44 1003.35 1003.23 1003.07 1002.91 1002.73 1002.56 1002.40 1002.26 1002.13
Thickness
5744 5755 5761 5761 5765 5771 5763 5755 5746 5753 5758 5767 5777 5783 5786 5787 5786 5786 5786 5786 5785 5783 5783 5785 5788 5787 5787 5786 5786 5784 5779 5775 5773 5771 5769 5766 5764 5762 5761 5759 5757 5754 5750 5749
5732 5748 5751 5752 5760 5763 5763 5762 5758 5757 5755 5771 5776 5779 5778 5778 5779 5777 5777 5777 5777 5777 5777 5779 5780 5780 5779 5777 5776 5775 5772 5770 5769 5766 5762 5760 5758 5758 5756 5752 5750 5748 5745 5743
5707 5726 5732 5727 5745 5752 5751 5755 5755 5745 5751 5763 5763 5765 5767 5769 5771 5771 5770 5769 5768 5769 5769 5771 5772 5773 5770 5769 5768 5766 5764 5763 5761 5758 5754 5753 5752 5750 5748 5746 5744 5740 5738 5737
5692 5703 5696 5720 5747 5751 5746 5746 5750 5750 5753 5757 5758 5759 5760 5763 5764 5763 5764 5762 5761 5760 5761 5763 5765 5764 5763 5762 5759 5757 5756 5755 5753 5751 5748 5745 5744 5742 5740 5738 5735 5733 5731 5730
5677 5679 5691 5716 5734 5737 5730 5725 5739 5740 5743 5746 5750 5747 5745 5753 5756 5756 5756 5755 5754 5753 5752 5753 5753 5753 5751 5749 5749 5747 5746 5745 5744 5742 5739 5737 5735 5734 5732 5730 5727 5726 5725 5722
5672 5671 5673 5699 5727 5737 5726 5707 5727 5731 5730 5733 5734 5719 5724 5739 5743 5744 5745 5745 5744 5744 5742 5741 5741 5742 5739 5738 5737 5736 5737 5736 5736 5733 5731 5728 5726 5724 5722 5721 5719 5718 5717 5716
5664 5663 5676 5702 5720 5724 5694 5692 5713 5721 5722 5722 5719 5718 5723 5728 5731 5732 5734 5735 5734 5732 5730 5730 5731 5731 5728 5729 5728 5730 5730 5728 5727 5725 5722 5720 5717 5715 5713 5711 5709 5708 5706 5706
5653 5651 5663 5697 5702 5692 5688 5699 5704 5708 5712 5712 5713 5716 5715 5717 5718 5720 5721 5722 5722 5720 5720 5722 5723 5721 5718 5718 5720 5721 5720 5718 5717 5715 5714 5712 5708 5705 5702 5700 5698 5696 5694 5694
5652 5656 5674 5685 5687 5690 5692 5692 5695 5697 5701 5702 5702 5703 5704 5706 5707 5709 5711 5711 5712 5711 5711 5713 5714 5714 5710 5710 5710 5710 5708 5705 5704 5703 5702 5700 5698 5695 5692 5689 5687 5685 5683 5682
5648 5657 5667 5674 5678 5682 5685 5685 5687 5689 5690 5691 5691 5693 5694 5694 5696 5697 5699 5700 5703 5702 5700 5700 5703 5704 5703 5702 5701 5699 5696 5694 5693 5691 5689 5687 5686 5684 5681 5679 5676 5675 5673 5671
5637 5647 5655 5662 5666 5670 5673 5676 5677 5677 5678 5678 5679 5680 5681 5681 5684 5686 5688 5689 5691 5690 5688 5689 5690 5691 5692 5691 5690 5687 5685 5683 5681 5679 5677 5675 5673 5671 5670 5670 5668 5666 5665 5663
5627 5639 5639 5646 5655 5661 5662 5663 5665 5665 5665 5667 5669 5668 5670 5670 5674 5676 5676 5677 5677 5677 5676 5677 5678 5679 5680 5680 5678 5676 5673 5671 5668 5666 5665 5663 5661 5659 5658 5657 5656 5656 5655 5654
5632 5638 5637 5642 5647 5651 5652 5654 5656 5656 5656 5657 5659 5661 5661 5660 5663 5665 5665 5666 5666 5666 5666 5666 5667 5667 5668 5668 5667 5666 5663 5660 5658 5655 5653 5651 5650 5647 5645 5643 5643 5642 5642 5642
5633 5633 5631 5634 5636 5640 5643 5645 5646 5647 5649 5650 5652 5653 5653 5652 5653 5654 5655 5656 5656 5656 5656 5656 5656 5656 5656 5656 5655 5653 5652 5650 5648 5645 5642 5640 5639 5637 5635 5633 5631 5629 5628 5628
5628 5629 5628 5630 5631 5632 5634 5635 5636 5636 5639 5641 5643 5644 5644 5643 5643 5644 5646 5647 5647 5645 5644 5644 5644 5643 5645 5645 5644 5641 5640 5638 5636 5634 5631 5629 5627 5626 5624 5622 5620 5617 5616 5616
5621 5624 5624 5624 5623 5624 5626 5627 5626 5629 5631 5633 5634 5635 5635 5636 5635 5635 5636 5637 5635 5633 5632 5632 5632 5633 5634 5634 5633 5631 5629 5629 5626 5624 5622 5619 5617 5615 5613 5611 5608 5606 5605 5604
5613 5613 5615 5616 5618 5619 5621 5622 5624 5625 5626 5626 5627 5627 5627 5626 5625 5625 5625 5626 5626 5625 5624 5623 5623 5624 5624 5624 5622 5621 5619 5618 5617 5614 5612 5610 5607 5605 5603 5600 5598 5597 5596 5595
5614 5614 5615 5616 5616 5616 5617 5619 5620 5621 5620 5621 5621 5620 5619 5617 5616 5615 5616 5616 5615 5614 5614 5614 5614 5615 5615 5614 5613 5611 5610 5608 5606 5604 5602 5600 5598 5596 5594 5592 5590 5588 5586 5585
5612 5612 5613 5614 5614 5614 5613 5613 5613 5614 5614 5614 5613 5611 5609 5609 5608 5607 5607 5606 5604 5604 5605 5606 5606 5606 5605 5605 5605 5603 5602 5600 5597 5594 5593 5591 5589 5587 5585 5583 5581 5580 5578 5576
5609 5610 5610 5611 5610 5609 5608 5609 5608 5608 5607 5607 5605 5603 5601 5600 5600 5600 5598 5597 5596 5597 5598 5597 5597 5597 5596 5597 5597 5595 5593 5591 5588 5586 5584 5582 5581 5579 5577 5576 5574 5572 5571 5568
5604 5605 5606 5605 5603 5603 5604 5603 5602 5601 5600 5600 5598 5596 5594 5593 5593 5592 5590 5589 5590 5591 5591 5591 5589 5589 5589 5589 5589 5586 5585 5583 5580 5578 5576 5574 5573 5571 5569 5567 5566 5565 5563 5562
5597 5598 5599 5599 5598 5597 5598 5598 5597 5595 5593 5592 5591 5590 5588 5586 5586 5585 5584 5584 5585 5586 5585 5584 5583 5583 5583 5583 5581 5579 5578 5576 5574 5572 5570 5568 5565 5563 5562 5560 5559 5557 5555 5554
5592 5592 5593 5594 5593 5592 5592 5591 5590 5588 5587 5586 5586 5585 5583 5582 5581 5579 5577 5579 5580 5580 5579 5578 5579 5579 5578 5576 5575 5574 5572 5571 5569 5567 5564 5562 5560 5558 5555 5554 5552 5550 5548 5547
5588 5588 5589 5589 5588 5586 5585 5585 5585 5584 5583 5583 5582 5581 5579 5577 5576 5577 5577 5577 5577 5577 5575 5574 5574 5574 5573 5570 5569 5568 5566 5565 5563 5561 5559 5557 5555 5552 5550 5548 5546 5545 5543 5542
5586 5586 5585 5584 5582 5581 5581 5580 5580 5579 5579 5577 5577 5577 5577 5576 5574 5574 5574 5574 5574 5572 5571 5570 5570 5569 5567 5565 5563 5561 5560 5559 5558 5556 5554 5551 5549 5547 5545 5543 5542 5539 5538 5537
5582 5581 5581 5581 5580 5579 5578 5577 5575 5574 5574 5573 5572 5573 5573 5573 5572 5571 5570 5570 5570 5568 5567 5565 5564 5563 5561 5560 5558 5557 5555 5554 5552 5551 5549 5547 5545 5543 5541 5539 5537 5535 5533 5531
5578 5578 5577 5576 5576 5576 5575 5574 5572 5572 5571 5571 5569 5570 5570 5569 5569 5567 5567 5565 5564 5564 5563 5561 5560 5558 5556 5555 5554 5552 5550 5549 5547 5546 5544 5542 5540 5538 5536 5534 5532 5529 5527 5525